START_TIME,STEP,MOV.,M34,t_acc.,L5,t_acc.,L18,t_acc.,L14,t_acc.
1979-03-10 00:00:22.210 ,3,1,0.,12.0,0.,12.0,0.,12.0,0.,12.0
1979-03-10 00:00:34.210 ,3,1,0.,12.0,0.,12.0,0.,12.0,0.,12.0
1979-03-10 00:00:46.210 ,7,1,0.,12.0,0.,12.0,0.,12.0,0.,12.0
1979-03-10 00:00:58.210 ,7,1,0.,12.0,0.,12.0,0.,12.0,0.,12.0
1979-03-10 00:01:10.210 ,4,1,0.,12.0,0.,12.0,0.,12.0,0.,12.0
1979-03-10 00:01:22.210 ,4,1,0.,12.0,0.,12.0,0.,12.0,0.,12.0
1979-03-10 00:01:34.210 ,0,1,0.,12.0,0.,12.0,0.,12.0,0.,12.0
1979-03-10 00:01:46.210 ,0,1,1.,12.0,0.,12.0,0.,12.0,0.,12.0
1979-03-10 00:01:58.210 ,3,1,0.,12.0,0.,12.0,0.,12.0,0.,12.0
1979-03-10 00:02:10.210 ,3,1,0.,12.0,0.,12.0,0.,12.0,0.,12.0
1979-03-10 00:02:22.210 ,7,1,0.,12.0,0.,12.0,0.,12.0,0.,12.0
1979-03-10 00:02:34.210 ,7,1,0.,12.0,0.,12.0,0.,12.0,0.,12.0
1979-03-10 00:02:46.210 ,4,1,0.,12.0,0.,12.0,0.,12.0,0.,12.0
1979-03-10 00:02:58.210 ,4,1,0.,12.0,0.,12.0,0.,12.0,0.,12.0
1979-03-10 00:03:10.210 ,0,1,0.,12.0,0.,12.0,0.,12.0,0.,12.0
1979-03-10 00:03:22.210 ,0,1,0.,12.0,0.,12.0,0.,12.0,0.,12.0
1979-03-10 00:03:34.210 ,3,1,0.,12.0,0.,12.0,0.,12.0,0.,12.0
1979-03-10 00:03:46.210 ,3,1,1.,12.0,0.,12.0,0.,12.0,0.,12.0
1979-03-10 00:03:58.210 ,7,1,0.,12.0,0.,12.0,0.,12.0,0.,12.0
1979-03-10 00:04:10.210 ,7,1,0.,12.0,0.,12.0,0.,12.0,0.,12.0
1979-03-10 00:04:22.210 ,4,1,0.,12.0,0.,12.0,0.,12.0,0.,12.0
1979-03-10 00:04:34.210 ,4,1,0.,12.0,1.,12.0,0.,12.0,0.,12.0
1979-03-10 00:04:46.210 ,0,1,0.,12.0,0.,12.0,0.,12.0,0.,12.0
1979-03-10 00:04:58.210 ,0,1,0.,12.0,0.,12.0,0.,12.0,0.,12.0
1979-03-10 00:05:10.210 ,3,1,0.,12.0,0.,12.0,0.,12.0,0.,12.0
1979-03-10 00:05:22.210 ,3,1,0.,12.0,0.,12.0,0.,12.0,0.,12.0
1979-03-10 00:05:34.210 ,7,1,0.,12.0,0.,12.0,0.,12.0,0.,12.0
1979-03-10 00:05:46.210 ,7,1,0.,12.0,0.,12.0,0.,12.0,0.,12.0
1979-03-10 00:05:58.210 ,4,1,0.,12.0,0.,12.0,0.,12.0,0.,12.0
1979-03-10 00:06:10.210 ,4,1,0.,12.0,0.,12.0,0.,12.0,0.,12.0
1979-03-10 00:06:22.210 ,0,1,0.,12.0,0.,12.0,0.,12.0,0.,12.0
1979-03-10 00:06:34.210 ,0,1,0.,12.0,0.,12.0,0.,12.0,0.,12.0
1979-03-10 00:06:46.210 ,3,1,0.,12.0,0.,12.0,0.,12.0,0.,12.0
1979-03-10 00:06:58.210 ,3,1,0.,12.0,0.,12.0,0.,12.0,0.,12.0
1979-03-10 00:07:10.210 ,7,1,0.,12.0,0.,12.0,0.,12.0,0.,12.0
1979-03-10 00:07:22.210 ,7,1,0.,12.0,0.,12.0,0.,12.0,0.,12.0
1979-03-10 00:07:34.210 ,4,1,0.,12.0,0.,12.0,0.,12.0,0.,12.0
1979-03-10 00:07:46.210 ,4,1,0.,12.0,0.,12.0,0.,12.0,0.,12.0
1979-03-10 00:07:58.210 ,0,1,0.,12.0,0.,12.0,0.,12.0,0.,12.0
1979-03-10 00:08:10.210 ,0,1,0.,12.0,0.,12.0,0.,12.0,0.,12.0
1979-03-10 00:08:22.210 ,3,1,0.,12.0,0.,12.0,0.,12.0,0.,12.0
1979-03-10 00:08:34.210 ,3,1,0.,12.0,0.,12.0,0.,12.0,0.,12.0
1979-03-10 00:08:46.210 ,7,1,1.,12.0,0.,12.0,0.,12.0,0.,12.0
1979-03-10 00:08:58.210 ,7,1,0.,12.0,1.,12.0,0.,12.0,0.,12.0
1979-03-10 00:09:10.210 ,4,1,0.,12.0,0.,12.0,0.,12.0,0.,12.0
1979-03-10 00:09:22.210 ,4,1,2.,12.0,0.,12.0,0.,12.0,0.,12.0
1979-03-10 00:09:34.210 ,0,1,0.,12.0,0.,12.0,0.,12.0,0.,12.0
1979-03-10 00:09:46.210 ,0,1,0.,12.0,0.,12.0,0.,12.0,0.,12.0
1979-03-10 00:09:58.210 ,3,1,0.,12.0,0.,12.0,0.,12.0,0.,12.0
1979-03-10 00:10:10.210 ,3,1,0.,12.0,0.,12.0,0.,12.0,0.,12.0
1979-03-10 00:10:22.210 ,7,1,0.,12.0,0.,12.0,0.,12.0,0.,12.0
1979-03-10 00:10:34.210 ,7,1,0.,12.0,0.,12.0,0.,12.0,0.,12.0
1979-03-10 00:10:46.210 ,4,1,0.,12.0,0.,12.0,0.,12.0,0.,12.0
1979-03-10 00:10:58.210 ,4,1,0.,12.0,0.,12.0,0.,12.0,0.,12.0
1979-03-10 00:11:10.210 ,0,1,1.,12.0,0.,12.0,0.,12.0,0.,12.0
1979-03-10 00:11:22.210 ,0,1,0.,12.0,0.,12.0,0.,12.0,0.,12.0
1979-03-10 00:11:34.210 ,3,1,0.,12.0,0.,12.0,0.,12.0,0.,12.0
1979-03-10 00:11:46.210 ,3,1,0.,12.0,0.,12.0,0.,12.0,0.,12.0
1979-03-10 00:11:58.210 ,7,1,0.,12.0,0.,12.0,0.,12.0,0.,12.0
1979-03-10 00:12:10.210 ,7,1,1.,12.0,0.,12.0,0.,12.0,0.,12.0
1979-03-10 00:12:22.210 ,4,1,0.,12.0,0.,12.0,0.,12.0,0.,12.0
1979-03-10 00:12:34.210 ,4,1,0.,12.0,0.,12.0,0.,12.0,0.,12.0
1979-03-10 00:12:46.210 ,0,1,0.,12.0,0.,12.0,0.,12.0,0.,12.0
1979-03-10 00:12:58.210 ,0,1,0.,12.0,0.,12.0,0.,12.0,0.,12.0
1979-03-10 00:13:10.210 ,3,1,0.,12.0,0.,12.0,0.,12.0,0.,12.0
1979-03-10 00:13:22.210 ,3,1,0.,12.0,0.,12.0,0.,12.0,0.,12.0
1979-03-10 00:13:34.210 ,7,1,0.,12.0,0.,12.0,0.,12.0,0.,12.0
1979-03-10 00:13:46.210 ,7,1,0.,12.0,0.,12.0,0.,12.0,0.,12.0
1979-03-10 00:13:58.210 ,4,1,0.,12.0,0.,12.0,0.,12.0,0.,12.0
1979-03-10 00:14:10.210 ,4,1,1.,12.0,0.,12.0,0.,12.0,0.,12.0
1979-03-10 00:14:22.210 ,0,1,0.,12.0,0.,12.0,0.,12.0,0.,12.0
1979-03-10 00:14:34.210 ,0,1,0.,12.0,0.,12.0,0.,12.0,0.,12.0
1979-03-10 00:14:46.210 ,3,1,0.,12.0,0.,12.0,0.,12.0,0.,12.0
1979-03-10 00:14:58.210 ,3,1,1.,12.0,0.,12.0,0.,12.0,0.,12.0
1979-03-10 00:15:10.210 ,7,1,0.,12.0,0.,12.0,0.,12.0,0.,12.0
1979-03-10 00:15:22.210 ,7,1,0.,12.0,0.,12.0,0.,12.0,0.,12.0
1979-03-10 00:15:34.210 ,4,1,0.,12.0,0.,12.0,0.,12.0,0.,12.0
1979-03-10 00:15:46.210 ,4,1,0.,12.0,0.,12.0,0.,12.0,0.,12.0
1979-03-10 00:15:58.210 ,0,1,0.,12.0,0.,12.0,0.,12.0,0.,12.0
1979-03-10 00:16:10.210 ,0,1,0.,12.0,0.,12.0,0.,12.0,0.,12.0
1979-03-10 00:16:22.210 ,3,1,0.,12.0,0.,12.0,0.,12.0,0.,12.0
1979-03-10 00:16:34.210 ,3,1,0.,12.0,0.,12.0,0.,12.0,0.,12.0
1979-03-10 00:16:46.210 ,7,1,0.,12.0,0.,12.0,0.,12.0,0.,12.0
1979-03-10 00:16:58.210 ,7,1,0.,12.0,0.,12.0,0.,12.0,0.,12.0
1979-03-10 00:17:10.210 ,4,1,0.,12.0,0.,12.0,0.,12.0,0.,12.0
1979-03-10 00:17:22.210 ,4,1,1.,12.0,0.,12.0,0.,12.0,0.,12.0
1979-03-10 00:17:34.210 ,0,1,0.,12.0,1.,12.0,0.,12.0,0.,12.0
1979-03-10 00:17:46.210 ,0,1,0.,12.0,0.,12.0,0.,12.0,0.,12.0
1979-03-10 00:17:58.210 ,3,1,0.,12.0,0.,12.0,0.,12.0,0.,12.0
1979-03-10 00:18:10.210 ,3,1,0.,12.0,0.,12.0,0.,12.0,0.,12.0
1979-03-10 00:18:22.210 ,7,1,0.,12.0,0.,12.0,0.,12.0,0.,12.0
1979-03-10 00:18:34.210 ,7,1,0.,12.0,0.,12.0,0.,12.0,0.,12.0
1979-03-10 00:18:46.210 ,4,1,0.,12.0,0.,12.0,0.,12.0,0.,12.0
1979-03-10 00:18:58.210 ,4,1,0.,12.0,0.,12.0,0.,12.0,0.,12.0
1979-03-10 00:19:10.210 ,0,1,0.,12.0,0.,12.0,0.,12.0,0.,12.0
1979-03-10 00:19:22.210 ,0,1,0.,12.0,0.,12.0,0.,12.0,0.,12.0
1979-03-10 00:19:34.210 ,3,1,0.,12.0,0.,12.0,0.,12.0,0.,12.0
1979-03-10 00:19:46.210 ,3,1,0.,12.0,0.,12.0,0.,12.0,0.,12.0
1979-03-10 00:19:58.210 ,7,1,0.,12.0,0.,12.0,0.,12.0,0.,12.0
1979-03-10 00:20:10.210 ,7,1,0.,12.0,0.,12.0,0.,12.0,0.,12.0
1979-03-10 00:20:22.210 ,4,1,0.,12.0,0.,12.0,0.,12.0,0.,12.0
1979-03-10 00:20:34.210 ,4,1,0.,12.0,0.,12.0,0.,12.0,0.,12.0
1979-03-10 00:20:46.210 ,0,1,0.,12.0,0.,12.0,0.,12.0,0.,12.0
1979-03-10 00:20:58.210 ,0,1,0.,12.0,0.,12.0,0.,12.0,0.,12.0
1979-03-10 00:21:10.210 ,3,1,0.,12.0,0.,12.0,0.,12.0,0.,12.0
1979-03-10 00:21:22.210 ,3,1,0.,12.0,0.,12.0,0.,12.0,0.,12.0
1979-03-10 00:21:34.210 ,7,1,0.,12.0,0.,12.0,0.,12.0,0.,12.0
1979-03-10 00:21:46.210 ,7,1,0.,12.0,0.,12.0,0.,12.0,0.,12.0
1979-03-10 00:21:58.210 ,4,1,0.,12.0,0.,12.0,0.,12.0,0.,12.0
1979-03-10 00:22:10.210 ,4,1,0.,12.0,0.,12.0,0.,12.0,0.,12.0
1979-03-10 00:22:22.210 ,0,1,1.,12.0,0.,12.0,0.,12.0,0.,12.0
1979-03-10 00:22:34.210 ,0,1,0.,12.0,0.,12.0,0.,12.0,0.,12.0
1979-03-10 00:22:46.210 ,3,1,0.,12.0,0.,12.0,0.,12.0,0.,12.0
1979-03-10 00:22:58.210 ,3,1,0.,12.0,0.,12.0,0.,12.0,0.,12.0
1979-03-10 00:23:10.210 ,7,1,1.,12.0,0.,12.0,0.,12.0,0.,12.0
1979-03-10 00:23:22.210 ,7,1,1.,12.0,0.,12.0,0.,12.0,0.,12.0
1979-03-10 00:23:34.210 ,4,1,0.,12.0,0.,12.0,0.,12.0,0.,12.0
1979-03-10 00:23:46.210 ,4,1,0.,12.0,0.,12.0,0.,12.0,0.,12.0
1979-03-10 00:23:58.210 ,0,1,0.,12.0,0.,12.0,0.,12.0,0.,12.0
1979-03-10 00:24:10.210 ,0,1,0.,12.0,0.,12.0,0.,12.0,0.,12.0
1979-03-10 00:24:22.210 ,3,1,0.,12.0,0.,12.0,0.,12.0,0.,12.0
1979-03-10 00:24:34.210 ,3,1,0.,12.0,0.,12.0,0.,12.0,0.,12.0
1979-03-10 00:24:46.210 ,7,1,0.,12.0,0.,12.0,0.,12.0,0.,12.0
1979-03-10 00:24:58.210 ,7,1,0.,12.0,0.,12.0,0.,12.0,0.,12.0
1979-03-10 00:25:10.210 ,4,1,0.,12.0,0.,12.0,0.,12.0,0.,12.0
1979-03-10 00:25:22.210 ,4,1,0.,12.0,0.,12.0,0.,12.0,0.,12.0
1979-03-10 00:25:34.210 ,0,1,0.,12.0,0.,12.0,0.,12.0,0.,12.0
1979-03-10 00:25:46.210 ,0,1,0.,12.0,0.,12.0,0.,12.0,0.,12.0
1979-03-10 00:25:58.210 ,3,1,0.,12.0,0.,12.0,0.,12.0,0.,12.0
1979-03-10 00:26:10.210 ,3,1,0.,12.0,0.,12.0,0.,12.0,0.,12.0
1979-03-10 00:26:22.210 ,7,1,0.,12.0,0.,12.0,0.,12.0,0.,12.0
1979-03-10 00:26:34.210 ,7,1,0.,12.0,0.,12.0,0.,12.0,0.,12.0
1979-03-10 00:26:46.210 ,4,1,0.,12.0,0.,12.0,0.,12.0,0.,12.0
1979-03-10 00:26:58.210 ,4,1,0.,12.0,0.,12.0,0.,12.0,0.,12.0
1979-03-10 00:27:10.210 ,0,1,0.,12.0,0.,12.0,0.,12.0,0.,12.0
1979-03-10 00:27:22.210 ,0,1,0.,12.0,0.,12.0,0.,12.0,0.,12.0
1979-03-10 00:27:34.210 ,3,1,1.,12.0,0.,12.0,0.,12.0,0.,12.0
1979-03-10 00:27:46.210 ,3,1,0.,12.0,0.,12.0,0.,12.0,0.,12.0
1979-03-10 00:27:58.210 ,7,1,0.,12.0,0.,12.0,0.,12.0,0.,12.0
1979-03-10 00:28:10.210 ,7,1,0.,12.0,0.,12.0,0.,12.0,0.,12.0
1979-03-10 00:28:22.210 ,4,1,0.,12.0,0.,12.0,0.,12.0,0.,12.0
1979-03-10 00:28:34.210 ,4,1,0.,12.0,0.,12.0,0.,12.0,0.,12.0
1979-03-10 00:28:46.210 ,0,1,0.,12.0,0.,12.0,0.,12.0,0.,12.0
1979-03-10 00:28:58.210 ,0,1,1.,12.0,0.,12.0,0.,12.0,0.,12.0
1979-03-10 00:29:10.210 ,3,1,0.,12.0,0.,12.0,0.,12.0,0.,12.0
1979-03-10 00:29:22.210 ,3,1,0.,12.0,0.,12.0,0.,12.0,0.,12.0
1979-03-10 00:29:34.210 ,7,1,0.,12.0,1.,12.0,0.,12.0,0.,12.0
1979-03-10 00:29:46.210 ,7,1,0.,12.0,0.,12.0,0.,12.0,0.,12.0
1979-03-10 00:29:58.210 ,4,1,0.,12.0,0.,12.0,0.,12.0,0.,12.0
1979-03-10 00:30:10.210 ,4,1,0.,12.0,0.,12.0,0.,12.0,0.,12.0
1979-03-10 00:30:22.210 ,0,1,0.,12.0,0.,12.0,0.,12.0,0.,12.0
1979-03-10 00:30:34.210 ,0,1,0.,12.0,0.,12.0,0.,12.0,0.,12.0
1979-03-10 00:30:46.210 ,3,1,1.,12.0,0.,12.0,0.,12.0,0.,12.0
1979-03-10 00:30:58.210 ,3,1,1.,12.0,0.,12.0,0.,12.0,0.,12.0
1979-03-10 00:31:10.210 ,7,1,0.,12.0,0.,12.0,0.,12.0,0.,12.0
1979-03-10 00:31:22.210 ,7,1,0.,12.0,0.,12.0,0.,12.0,0.,12.0
1979-03-10 00:31:34.210 ,4,1,0.,12.0,0.,12.0,0.,12.0,0.,12.0
1979-03-10 00:31:46.210 ,4,1,0.,12.0,1.,12.0,0.,12.0,0.,12.0
1979-03-10 00:31:58.210 ,0,1,0.,12.0,0.,12.0,0.,12.0,0.,12.0
1979-03-10 00:32:10.210 ,0,1,1.,12.0,0.,12.0,0.,12.0,0.,12.0
1979-03-10 00:32:22.210 ,3,1,0.,12.0,0.,12.0,0.,12.0,0.,12.0
1979-03-10 00:32:34.210 ,3,1,1.,12.0,0.,12.0,0.,12.0,0.,12.0
1979-03-10 00:32:46.210 ,7,1,2.,12.0,0.,12.0,0.,12.0,0.,12.0
1979-03-10 00:32:58.210 ,7,1,0.,12.0,0.,12.0,0.,12.0,0.,12.0
1979-03-10 00:33:10.210 ,4,1,0.,12.0,0.,12.0,0.,12.0,0.,12.0
1979-03-10 00:33:22.210 ,4,1,1.,12.0,0.,12.0,0.,12.0,0.,12.0
1979-03-10 00:33:34.210 ,0,1,0.,12.0,0.,12.0,0.,12.0,0.,12.0
1979-03-10 00:33:46.210 ,0,1,0.,12.0,0.,12.0,0.,12.0,0.,12.0
1979-03-10 00:33:58.210 ,3,1,0.,12.0,0.,12.0,0.,12.0,0.,12.0
1979-03-10 00:34:10.210 ,3,1,2.,12.0,0.,12.0,0.,12.0,0.,12.0
1979-03-10 00:34:22.210 ,7,1,0.,12.0,0.,12.0,0.,12.0,0.,12.0
1979-03-10 00:34:34.210 ,7,1,0.,12.0,0.,12.0,0.,12.0,0.,12.0
1979-03-10 00:34:46.210 ,4,1,0.,12.0,0.,12.0,0.,12.0,0.,12.0
1979-03-10 00:34:58.210 ,4,1,0.,12.0,0.,12.0,0.,12.0,0.,12.0
1979-03-10 00:35:10.210 ,0,1,0.,12.0,0.,12.0,0.,12.0,0.,12.0
1979-03-10 00:35:22.210 ,0,1,0.,12.0,0.,12.0,0.,12.0,0.,12.0
1979-03-10 00:35:34.210 ,3,1,0.,12.0,0.,12.0,0.,12.0,0.,12.0
1979-03-10 00:35:46.210 ,3,1,1.,12.0,0.,12.0,0.,12.0,0.,12.0
1979-03-10 00:35:58.210 ,7,1,0.,12.0,0.,12.0,0.,12.0,0.,12.0
1979-03-10 00:36:10.210 ,7,1,0.,12.0,0.,12.0,0.,12.0,0.,12.0
1979-03-10 00:36:22.210 ,4,1,0.,12.0,0.,12.0,0.,12.0,0.,12.0
1979-03-10 00:36:34.210 ,4,1,0.,12.0,0.,12.0,0.,12.0,0.,12.0
1979-03-10 00:36:46.210 ,0,1,0.,12.0,0.,12.0,0.,12.0,0.,12.0
1979-03-10 00:36:58.210 ,0,1,0.,12.0,0.,12.0,0.,12.0,0.,12.0
1979-03-10 00:37:10.210 ,3,1,0.,12.0,0.,12.0,0.,12.0,0.,12.0
1979-03-10 00:37:22.210 ,3,1,1.,12.0,0.,12.0,0.,12.0,0.,12.0
1979-03-10 00:37:34.210 ,7,1,2.,12.0,0.,12.0,0.,12.0,0.,12.0
1979-03-10 00:37:46.210 ,7,1,0.,12.0,0.,12.0,0.,12.0,0.,12.0
1979-03-10 00:37:58.210 ,4,1,0.,12.0,0.,12.0,0.,12.0,0.,12.0
1979-03-10 00:38:10.210 ,4,1,0.,12.0,0.,12.0,0.,12.0,0.,12.0
1979-03-10 00:38:22.210 ,0,1,1.,12.0,0.,12.0,0.,12.0,0.,12.0
1979-03-10 00:38:34.210 ,0,1,0.,12.0,0.,12.0,0.,12.0,0.,12.0
1979-03-10 00:38:46.210 ,3,1,0.,12.0,0.,12.0,0.,12.0,0.,12.0
1979-03-10 00:38:58.210 ,3,1,0.,12.0,1.,12.0,0.,12.0,0.,12.0
1979-03-10 00:39:10.210 ,5,1,0.,12.0,0.,12.0,0.,12.0,0.,12.0
1979-03-10 00:39:22.210 ,5,1,0.,12.0,0.,12.0,0.,12.0,0.,12.0
1979-03-10 00:39:34.210 ,6,1,1.,12.0,0.,12.0,0.,12.0,0.,12.0
1979-03-10 00:39:46.210 ,6,1,0.,12.0,0.,12.0,0.,12.0,0.,12.0
1979-03-10 00:39:58.210 ,7,1,0.,12.0,0.,12.0,0.,12.0,0.,12.0
1979-03-10 00:40:10.210 ,7,1,0.,12.0,0.,12.0,0.,12.0,0.,12.0
1979-03-10 00:40:22.210 ,7,1,0.,12.0,0.,12.0,0.,12.0,0.,12.0
1979-03-10 00:40:34.210 ,7,1,0.,12.0,0.,12.0,0.,12.0,0.,12.0
1979-03-10 00:40:46.210 ,6,1,0.,12.0,0.,12.0,0.,12.0,0.,12.0
1979-03-10 00:40:58.210 ,6,1,0.,12.0,0.,12.0,0.,12.0,0.,12.0
1979-03-10 00:41:10.210 ,5,1,0.,12.0,0.,12.0,0.,12.0,0.,12.0
1979-03-10 00:41:22.210 ,5,1,0.,12.0,0.,12.0,0.,12.0,0.,12.0
1979-03-10 00:41:34.210 ,4,1,0.,12.0,0.,12.0,0.,12.0,0.,12.0
1979-03-10 00:41:46.210 ,4,1,1.,12.0,0.,12.0,0.,12.0,0.,12.0
1979-03-10 00:41:58.210 ,3,1,0.,12.0,0.,12.0,0.,12.0,0.,12.0
1979-03-10 00:42:10.210 ,3,1,1.,12.0,0.,12.0,0.,12.0,0.,12.0
1979-03-10 00:42:22.210 ,2,1,1.,12.0,0.,12.0,0.,12.0,0.,12.0
1979-03-10 00:42:34.210 ,2,1,0.,12.0,0.,12.0,0.,12.0,0.,12.0
1979-03-10 00:42:46.210 ,1,1,0.,12.0,0.,12.0,0.,12.0,0.,12.0
1979-03-10 00:42:58.210 ,1,1,1.,12.0,0.,12.0,0.,12.0,0.,12.0
1979-03-10 00:43:10.210 ,0,1,0.,12.0,0.,12.0,0.,12.0,0.,12.0
1979-03-10 00:43:22.210 ,0,1,0.,12.0,0.,12.0,0.,12.0,0.,12.0
1979-03-10 00:43:34.210 ,0,1,0.,12.0,0.,12.0,0.,12.0,0.,12.0
1979-03-10 00:43:46.210 ,0,1,0.,12.0,0.,12.0,0.,12.0,0.,12.0
1979-03-10 00:43:58.210 ,1,1,0.,12.0,0.,12.0,0.,12.0,0.,12.0
1979-03-10 00:44:10.210 ,1,1,0.,12.0,0.,12.0,0.,12.0,0.,12.0
1979-03-10 00:44:22.210 ,2,1,0.,12.0,0.,12.0,0.,12.0,0.,12.0
1979-03-10 00:44:34.210 ,2,1,0.,12.0,0.,12.0,0.,12.0,1.,12.0
1979-03-10 00:44:46.210 ,3,1,0.,12.0,0.,12.0,0.,12.0,0.,12.0
1979-03-10 00:44:58.210 ,3,1,0.,12.0,0.,12.0,0.,12.0,0.,12.0
1979-03-10 00:45:10.210 ,4,1,0.,12.0,0.,12.0,0.,12.0,0.,12.0
1979-03-10 00:45:22.210 ,4,1,0.,12.0,0.,12.0,0.,12.0,1.,12.0
1979-03-10 00:45:34.210 ,5,1,0.,12.0,0.,12.0,0.,12.0,0.,12.0
1979-03-10 00:45:46.210 ,5,1,0.,12.0,0.,12.0,0.,12.0,0.,12.0
1979-03-10 00:45:58.210 ,6,1,0.,12.0,0.,12.0,0.,12.0,0.,12.0
1979-03-10 00:46:10.210 ,6,1,1.,12.0,0.,12.0,0.,12.0,0.,12.0
1979-03-10 00:46:22.210 ,7,1,1.,12.0,0.,12.0,0.,12.0,0.,12.0
1979-03-10 00:46:34.210 ,7,1,0.,12.0,0.,12.0,0.,12.0,0.,12.0
1979-03-10 00:46:46.210 ,7,1,0.,12.0,0.,12.0,0.,12.0,0.,12.0
1979-03-10 00:46:58.210 ,7,1,0.,12.0,0.,12.0,0.,12.0,0.,12.0
1979-03-10 00:47:10.210 ,6,1,0.,12.0,0.,12.0,0.,12.0,0.,12.0
1979-03-10 00:47:22.210 ,6,1,0.,12.0,0.,12.0,0.,12.0,0.,12.0
1979-03-10 00:47:34.210 ,5,1,0.,12.0,0.,12.0,0.,12.0,0.,12.0
1979-03-10 00:47:46.210 ,5,1,1.,12.0,0.,12.0,0.,12.0,0.,12.0
1979-03-10 00:47:58.210 ,4,1,0.,12.0,0.,12.0,0.,12.0,0.,12.0
1979-03-10 00:48:10.210 ,4,1,0.,12.0,0.,12.0,0.,12.0,0.,12.0
1979-03-10 00:48:22.210 ,3,1,0.,12.0,0.,12.0,0.,12.0,0.,12.0
1979-03-10 00:48:34.210 ,3,1,0.,12.0,0.,12.0,0.,12.0,0.,12.0
1979-03-10 00:48:46.210 ,2,1,0.,12.0,0.,12.0,0.,12.0,0.,12.0
1979-03-10 00:48:58.210 ,2,1,1.,12.0,0.,12.0,0.,12.0,0.,12.0
1979-03-10 00:49:10.210 ,1,1,1.,12.0,0.,12.0,0.,12.0,0.,12.0
1979-03-10 00:49:22.210 ,1,1,0.,12.0,0.,12.0,0.,12.0,0.,12.0
1979-03-10 00:49:34.210 ,0,1,0.,12.0,0.,12.0,0.,12.0,0.,12.0
1979-03-10 00:49:46.210 ,0,1,0.,12.0,0.,12.0,0.,12.0,0.,12.0
1979-03-10 00:49:58.210 ,0,1,0.,12.0,0.,12.0,0.,12.0,0.,12.0
1979-03-10 00:50:10.210 ,0,1,0.,12.0,0.,12.0,0.,12.0,0.,12.0
1979-03-10 00:50:22.210 ,1,1,0.,12.0,0.,12.0,0.,12.0,0.,12.0
1979-03-10 00:50:34.210 ,1,1,0.,12.0,0.,12.0,0.,12.0,0.,12.0
1979-03-10 00:50:46.210 ,2,1,0.,12.0,0.,12.0,0.,12.0,0.,12.0
1979-03-10 00:50:58.210 ,2,1,1.,12.0,0.,12.0,0.,12.0,0.,12.0
1979-03-10 00:51:10.210 ,3,1,0.,12.0,0.,12.0,0.,12.0,0.,12.0
1979-03-10 00:51:22.210 ,3,1,1.,12.0,0.,12.0,0.,12.0,0.,12.0
1979-03-10 00:51:34.210 ,4,1,0.,12.0,0.,12.0,0.,12.0,0.,12.0
1979-03-10 00:51:46.210 ,4,1,0.,12.0,0.,12.0,0.,12.0,0.,12.0
1979-03-10 00:51:58.210 ,5,1,0.,12.0,0.,12.0,0.,12.0,0.,12.0
1979-03-10 00:52:10.210 ,5,1,1.,12.0,0.,12.0,0.,12.0,0.,12.0
1979-03-10 00:52:22.210 ,6,1,3.,12.0,0.,12.0,0.,12.0,0.,12.0
1979-03-10 00:52:34.210 ,6,1,1.,12.0,0.,12.0,0.,12.0,0.,12.0
1979-03-10 00:52:46.210 ,7,1,0.,12.0,0.,12.0,0.,12.0,0.,12.0
1979-03-10 00:52:58.210 ,7,1,0.,12.0,0.,12.0,0.,12.0,0.,12.0
1979-03-10 00:53:10.210 ,7,1,0.,12.0,0.,12.0,0.,12.0,0.,12.0
1979-03-10 00:53:22.210 ,7,1,0.,12.0,0.,12.0,0.,12.0,0.,12.0
1979-03-10 00:53:34.210 ,6,1,0.,12.0,0.,12.0,0.,12.0,0.,12.0
1979-03-10 00:53:46.210 ,6,1,0.,12.0,0.,12.0,0.,12.0,0.,12.0
1979-03-10 00:53:58.210 ,5,1,0.,12.0,0.,12.0,0.,12.0,0.,12.0
1979-03-10 00:54:10.210 ,5,1,0.,12.0,0.,12.0,0.,12.0,0.,12.0
1979-03-10 00:54:22.210 ,4,1,0.,12.0,0.,12.0,0.,12.0,0.,12.0
1979-03-10 00:54:34.210 ,4,1,0.,12.0,0.,12.0,0.,12.0,0.,12.0
1979-03-10 00:54:46.210 ,3,1,0.,12.0,0.,12.0,0.,12.0,0.,12.0
1979-03-10 00:54:58.210 ,3,1,0.,12.0,0.,12.0,0.,12.0,0.,12.0
1979-03-10 00:55:10.210 ,2,1,0.,12.0,0.,12.0,0.,12.0,0.,12.0
1979-03-10 00:55:22.210 ,2,1,0.,12.0,0.,12.0,0.,12.0,0.,12.0
1979-03-10 00:55:34.210 ,1,1,1.,12.0,0.,12.0,0.,12.0,0.,12.0
1979-03-10 00:55:46.210 ,1,1,0.,12.0,0.,12.0,0.,12.0,0.,12.0
1979-03-10 00:55:58.210 ,0,1,0.,12.0,0.,12.0,0.,12.0,0.,12.0
1979-03-10 00:56:10.210 ,0,1,0.,12.0,0.,12.0,0.,12.0,0.,12.0
1979-03-10 00:56:22.210 ,0,1,0.,12.0,0.,12.0,0.,12.0,0.,12.0
1979-03-10 00:56:34.210 ,0,1,0.,12.0,0.,12.0,0.,12.0,0.,12.0
1979-03-10 00:56:46.210 ,1,1,0.,12.0,0.,12.0,0.,12.0,0.,12.0
1979-03-10 00:56:58.210 ,1,1,0.,12.0,0.,12.0,0.,12.0,0.,12.0
1979-03-10 00:57:10.210 ,2,1,0.,12.0,0.,12.0,0.,12.0,0.,12.0
1979-03-10 00:57:22.210 ,2,1,1.,12.0,0.,12.0,0.,12.0,0.,12.0
1979-03-10 00:57:34.210 ,3,1,0.,12.0,0.,12.0,0.,12.0,0.,12.0
1979-03-10 00:57:46.210 ,3,1,0.,12.0,0.,12.0,0.,12.0,0.,12.0
1979-03-10 00:57:58.210 ,4,1,0.,12.0,0.,12.0,0.,12.0,0.,12.0
1979-03-10 00:58:10.210 ,4,1,0.,12.0,0.,12.0,0.,12.0,0.,12.0
1979-03-10 00:58:22.210 ,5,1,0.,12.0,0.,12.0,0.,12.0,0.,12.0
1979-03-10 00:58:34.210 ,5,1,0.,12.0,0.,12.0,0.,12.0,0.,12.0
1979-03-10 00:58:46.210 ,6,1,0.,12.0,0.,12.0,0.,12.0,0.,12.0
1979-03-10 00:58:58.210 ,6,1,1.,12.0,0.,12.0,0.,12.0,0.,12.0
1979-03-10 00:59:10.210 ,7,1,0.,12.0,0.,12.0,0.,12.0,0.,12.0
1979-03-10 00:59:22.210 ,7,1,0.,12.0,0.,12.0,0.,12.0,0.,12.0
1979-03-10 00:59:34.210 ,7,1,0.,12.0,0.,12.0,0.,12.0,0.,12.0
1979-03-10 00:59:46.210 ,7,1,0.,12.0,0.,12.0,0.,12.0,0.,12.0
1979-03-10 00:59:58.210 ,6,1,0.,12.0,0.,12.0,0.,12.0,0.,12.0
1979-03-10 01:00:10.210 ,6,1,0.,12.0,0.,12.0,0.,12.0,0.,12.0
1979-03-10 01:00:22.210 ,5,1,0.,12.0,0.,12.0,0.,12.0,0.,12.0
1979-03-10 01:00:34.210 ,5,1,0.,12.0,0.,12.0,0.,12.0,0.,12.0
1979-03-10 01:00:46.210 ,4,1,0.,12.0,0.,12.0,0.,12.0,0.,12.0
1979-03-10 01:00:58.210 ,4,1,0.,12.0,0.,12.0,0.,12.0,0.,12.0
1979-03-10 01:01:10.210 ,0,0,1.,12.0,0.,12.0,0.,12.0,0.,12.0
1979-03-10 01:01:22.210 ,0,0,0.,12.0,0.,12.0,0.,12.0,0.,12.0
1979-03-10 01:01:36.610 ,0,0,,0,,0,,0,,0
1979-03-10 01:01:48.610 ,0,0,0.,12.0,0.,12.0,0.,12.0,0.,12.0
1979-03-10 01:01:58.210 ,1,1,2.,12.0,0.,12.0,0.,12.0,0.,12.0
1979-03-10 01:02:10.210 ,1,1,0.,12.0,0.,12.0,0.,12.0,0.,12.0
1979-03-10 01:02:22.210 ,0,1,0.,12.0,0.,12.0,0.,12.0,0.,12.0
1979-03-10 01:02:34.210 ,0,1,0.,12.0,0.,12.0,0.,12.0,0.,12.0
1979-03-10 01:02:46.210 ,0,1,0.,12.0,0.,12.0,0.,12.0,0.,12.0
1979-03-10 01:02:58.210 ,0,1,0.,12.0,0.,12.0,0.,12.0,0.,12.0
1979-03-10 01:03:10.210 ,1,1,0.,12.0,0.,12.0,0.,12.0,0.,12.0
1979-03-10 01:03:22.210 ,1,1,0.,12.0,0.,12.0,0.,12.0,0.,12.0
1979-03-10 01:03:34.210 ,2,1,0.,12.0,0.,12.0,0.,12.0,0.,12.0
1979-03-10 01:03:46.210 ,2,1,0.,12.0,0.,12.0,0.,12.0,0.,12.0
1979-03-10 01:03:58.210 ,3,1,0.,12.0,0.,12.0,0.,12.0,0.,12.0
1979-03-10 01:04:10.210 ,3,1,0.,12.0,0.,12.0,0.,12.0,0.,12.0
1979-03-10 01:04:22.210 ,4,1,0.,12.0,0.,12.0,0.,12.0,0.,12.0
1979-03-10 01:04:34.210 ,4,1,0.,12.0,0.,12.0,0.,12.0,0.,12.0
1979-03-10 01:04:46.210 ,5,1,0.,12.0,0.,12.0,0.,12.0,0.,12.0
1979-03-10 01:04:58.210 ,5,1,0.,12.0,0.,12.0,0.,12.0,0.,12.0
1979-03-10 01:05:10.210 ,5,1,,0,,0,,0,,0
1979-03-10 01:05:22.210 ,5,1,,0,,0,,0,,0
1979-03-10 01:07:48.010 ,0,0,,0,,0,,0,,0
1979-03-10 01:08:00.010 ,0,0,0.,12.0,0.,12.0,0.,12.0,0.,12.0
1979-03-10 01:07:58.210 ,2,1,1.,12.0,0.,12.0,0.,12.0,0.,12.0
1979-03-10 01:08:10.210 ,2,1,0.,12.0,0.,12.0,0.,12.0,0.,12.0
1979-03-10 01:08:22.210 ,1,1,0.,12.0,0.,12.0,0.,12.0,0.,12.0
1979-03-10 01:08:34.210 ,1,1,0.,12.0,0.,12.0,0.,12.0,0.,12.0
1979-03-10 01:08:46.210 ,0,1,0.,12.0,0.,12.0,0.,12.0,0.,12.0
1979-03-10 01:08:58.210 ,0,1,0.,12.0,0.,12.0,0.,12.0,0.,12.0
1979-03-10 01:09:10.210 ,0,1,0.,12.0,0.,12.0,0.,12.0,0.,12.0
1979-03-10 01:09:22.210 ,0,1,0.,12.0,0.,12.0,0.,12.0,0.,12.0
1979-03-10 01:09:34.210 ,1,1,0.,12.0,0.,12.0,0.,12.0,0.,12.0
1979-03-10 01:09:46.210 ,1,1,0.,12.0,0.,12.0,0.,12.0,0.,12.0
1979-03-10 01:09:58.210 ,2,1,0.,12.0,0.,12.0,0.,12.0,0.,12.0
1979-03-10 01:10:10.210 ,2,1,0.,12.0,0.,12.0,0.,12.0,0.,12.0
1979-03-10 01:10:22.210 ,3,1,0.,12.0,0.,12.0,0.,12.0,0.,12.0
1979-03-10 01:10:34.210 ,3,1,0.,12.0,0.,12.0,0.,12.0,0.,12.0
1979-03-10 01:10:46.210 ,4,1,0.,12.0,0.,12.0,0.,12.0,0.,12.0
1979-03-10 01:10:58.210 ,4,1,0.,12.0,0.,12.0,0.,12.0,0.,12.0
1979-03-10 01:11:10.210 ,5,1,0.,12.0,0.,12.0,0.,12.0,0.,12.0
1979-03-10 01:11:22.210 ,5,1,0.,12.0,0.,12.0,0.,12.0,0.,12.0
1979-03-10 01:11:34.210 ,6,1,0.,12.0,0.,12.0,0.,12.0,0.,12.0
1979-03-10 01:11:46.210 ,6,1,0.,12.0,0.,12.0,0.,12.0,0.,12.0
1979-03-10 01:11:58.210 ,7,1,0.,12.0,0.,12.0,0.,12.0,0.,12.0
1979-03-10 01:12:10.210 ,7,1,0.,12.0,0.,12.0,0.,12.0,0.,12.0
1979-03-10 01:12:22.210 ,7,1,0.,12.0,0.,12.0,0.,12.0,0.,12.0
1979-03-10 01:12:34.210 ,7,1,0.,12.0,0.,12.0,0.,12.0,0.,12.0
1979-03-10 01:12:46.210 ,6,1,0.,12.0,0.,12.0,0.,12.0,0.,12.0
1979-03-10 01:12:58.210 ,6,1,0.,12.0,0.,12.0,0.,12.0,0.,12.0
1979-03-10 01:13:10.210 ,5,1,0.,12.0,0.,12.0,0.,12.0,0.,12.0
1979-03-10 01:13:22.210 ,5,1,1.,12.0,0.,12.0,0.,12.0,0.,12.0
1979-03-10 01:13:34.210 ,4,1,0.,12.0,0.,12.0,0.,12.0,0.,12.0
1979-03-10 01:13:46.210 ,4,1,0.,12.0,0.,12.0,0.,12.0,0.,12.0
1979-03-10 01:13:58.210 ,3,1,0.,12.0,0.,12.0,0.,12.0,0.,12.0
1979-03-10 01:14:10.210 ,3,1,0.,12.0,0.,12.0,0.,12.0,0.,12.0
1979-03-10 01:14:22.210 ,2,1,0.,12.0,0.,12.0,0.,12.0,0.,12.0
1979-03-10 01:14:34.210 ,2,1,0.,12.0,0.,12.0,0.,12.0,0.,12.0
1979-03-10 01:14:46.210 ,1,1,0.,12.0,0.,12.0,0.,12.0,0.,12.0
1979-03-10 01:14:58.210 ,1,1,0.,12.0,0.,12.0,0.,12.0,0.,12.0
1979-03-10 01:15:10.210 ,0,1,0.,12.0,0.,12.0,0.,12.0,0.,12.0
1979-03-10 01:15:22.210 ,0,1,0.,12.0,0.,12.0,0.,12.0,0.,12.0
1979-03-10 01:15:34.210 ,0,1,0.,12.0,0.,12.0,0.,12.0,0.,12.0
1979-03-10 01:15:46.210 ,0,1,0.,12.0,0.,12.0,0.,12.0,0.,12.0
1979-03-10 01:15:58.210 ,1,1,0.,12.0,0.,12.0,0.,12.0,0.,12.0
1979-03-10 01:16:10.210 ,1,1,0.,12.0,0.,12.0,0.,12.0,0.,12.0
1979-03-10 01:16:22.210 ,2,1,0.,12.0,0.,12.0,0.,12.0,0.,12.0
1979-03-10 01:16:34.210 ,2,1,0.,12.0,0.,12.0,0.,12.0,0.,12.0
1979-03-10 01:16:46.210 ,3,1,0.,12.0,0.,12.0,0.,12.0,0.,12.0
1979-03-10 01:16:58.210 ,3,1,0.,12.0,0.,12.0,0.,12.0,0.,12.0
1979-03-10 01:17:10.210 ,4,1,0.,12.0,0.,12.0,0.,12.0,0.,12.0
1979-03-10 01:17:22.210 ,4,1,0.,12.0,0.,12.0,0.,12.0,0.,12.0
1979-03-10 01:17:34.210 ,5,1,0.,12.0,0.,12.0,0.,12.0,0.,12.0
1979-03-10 01:17:46.210 ,5,1,0.,12.0,0.,12.0,0.,12.0,0.,12.0
1979-03-10 01:17:58.210 ,6,1,0.,12.0,0.,12.0,0.,12.0,0.,12.0
1979-03-10 01:18:10.210 ,6,1,0.,12.0,0.,12.0,0.,12.0,0.,12.0
1979-03-10 01:18:22.210 ,7,1,0.,12.0,0.,12.0,0.,12.0,0.,12.0
1979-03-10 01:18:34.210 ,7,1,0.,12.0,0.,12.0,0.,12.0,0.,12.0
1979-03-10 01:18:46.210 ,7,1,0.,12.0,0.,12.0,0.,12.0,0.,12.0
1979-03-10 01:18:58.210 ,7,1,0.,12.0,0.,12.0,0.,12.0,0.,12.0
1979-03-10 01:19:10.210 ,6,1,0.,12.0,0.,12.0,0.,12.0,0.,12.0
1979-03-10 01:19:22.210 ,6,1,0.,12.0,0.,12.0,0.,12.0,0.,12.0
1979-03-10 01:19:34.210 ,5,1,0.,12.0,0.,12.0,0.,12.0,0.,12.0